Regional Weather Roundup
Issued by NWS Midland/Odessa, TX

Home | Current Version | Previous Version | Text Only | Print | Product List | Glossary On
Versions: 1 2 3 4 5 6 7 8 9 10 11 12 13 14 15 16 17 18 19 20 21 22 23 24 25 26 27 28 29 30 31 32 33 34 35 36 37 38 39 40 41 42 43 44 45 46 47 48 49 50
000
ASUS44 KMAF 291910
RWRMAF
MIDLAND AREA WEATHER ROUNDUP
NATIONAL WEATHER SERVICE MIDLAND TX
200 PM CDT FRI APR 29 2016

...IN SOUTHWEST TEXAS AND SOUTHEAST NEW MEXICO...

CITY           SKY/WX    TMP DP  RH WIND       PRES   REMARKS
ALPINE         SUNNY     77  26  15 W15G26    29.91S
ANDREWS        FAIR      80  23  12 W20G30    29.73F
ARTESIA        SUNNY     75  12   9 W9G29     29.74F
BIG SPRING     SUNNY     80  33  18 SW22G30   29.74F
CARLSBAD       SUNNY     75  14  10 W23G29    29.76F
DRYDEN           N/A     89  38  16 N8G20     29.69F
FORT STOCKTON  SUNNY     79  31  17 W8G22     29.77F
GUAD PASS      SUNNY     66  15  14 W38G48    29.87F
HOBBS          SUNNY     75  10   8 SW26G38   29.76F
MARFA          SUNNY     72  26  18 W15G26      N/A
MIDLAND AIRPK  SUNNY     83  29  14 W17G29    29.74F
MIDLAND INTL   SUNNY     84  30  14 W23G32    29.73F
ODESSA         SUNNY     82  28  14 W17       29.75F
PECOS          SUNNY     82  22  11 W15G30    29.75F
PRESIDIO       FAIR      83  29  13 NW13G23   29.79F
SEMINOLE       SUNNY     78  21  12 W21G35    29.75F
SNYDER           N/A     82  40  22 W21G30    29.70S
WINK           SUNNY     82  21  10 W24G39    29.73F
$$
...OTHER STATIONS IN TEXAS...

CITY           SKY/WX    TMP DP  RH WIND       PRES   REMARKS
ABILENE        SUNNY     85  47  26 W14G25    29.65F
AMARILLO       CLOUDY    56  48  74 NE9       29.74F
AUSTIN         CLOUDY    79  74  84 S17G26    29.67F HAZE
BROWNSVILLE    CLOUDY    84  77  79 SE25G33   29.64F
CORPUS CHRISTI CLOUDY    84  75  74 S23G33    29.65F
DALLAS FTW     CLOUDY    85  70  60 S14       29.62F
DEL RIO        MOSUNNY   86  70  58 VRB5      29.63F HAZE
EL PASO        MOSUNNY   68  18  14 W12G26    29.87F
HOUSTON INT    MOSUNNY   85  70  60 S22G32    29.71F
LUBBOCK        MOSUNNY   76  37  24 W22G29    29.72F
SAN ANGELO     SUNNY     86  51  29 W9G17     29.67F
SAN ANTONIO    PTSUNNY   83  73  72 S13       29.66F
WACO           CLOUDY    80  74  81 S15       29.65F HAZE
WICHITA FALLS  NOT AVBL
$$
...OTHER LOCATIONS IN NEW MEXICO...

CITY           SKY/WX    TMP DP  RH WIND       PRES   REMARKS
ALAMAGORDO     SUNNY     66  14  13 W9G16     29.86F
ALBUQUERQUE    CLOUDY    54  27  35 SW7       29.83F
CANNON AFB     PTSUNNY   63  37  39 NW31G44   29.77S
CLOVIS         PTSUNNY   57  45  62 NE3       29.78F
HOLLOMAN AFB   SUNNY     66  17  15 S10G18    29.84F
ROSWELL        SUNNY     74  14  10 NW12G24   29.74S
RUIDOSO          N/A     55  14  19 W22G31    29.87F
SANTA FE       CLOUDY    51  25  36 SW14G22   29.82F
TRUTH OR CONSE MOSUNNY   65  18  16 S10G25    29.82F
TUCUMCARI      CLOUDY    53  46  77 VRB3      29.80F
$$




USA.gov is the U.S. government's official web portal to all federal, state and local government web resources and services.